Flag for U.S.A. Weather past 2 weeks in Antioch, California, U.S.A.

Now
60 °F

Clear.


Feels Like: 60 °F
Forecast: 58 / 82 °F
Wind: 9 mph from South

Location: Buchanan Field

Current Time: Sep 30, 2014 at 5:54:23 AM

Latest Report: Sep 30, 2014 at 4:53 AM


Visibility: 10 mi

Pressure: 29.90 "Hg

Humidity: 86%

Dew point: 56 °F

Location of AntiochLocation

Historic Weather in Antioch — Graph

°F

Antioch temperature yesterday

Maximum temperature yesterday: 80 °F (at 2:53 PM)
Minimum temperature yesterday: 56 °F (at 4:53 AM)
Average temperature yesterday: 65 °F

Past Weeks' High & Low Weather Summary

 TemperatureHumidityPressure
High87 °F (Sep 16, 3:53 PM)96% (Sep 29, 6:53 AM)30.02 "Hg (Sep 29, 6:53 AM)
Low56 °F (Sep 29, 4:53 AM)23% (Sep 16, 3:53 PM)29.69 "Hg (Sep 17, 4:53 PM)
Average69 °F67%29.87 "Hg
* Reported Sep 15 3:53 AM — Sep 30 3:53 AM, Antioch, Weather by CustomWeather, © 2014

Note: Actual official high and low records may vary slightly from our data, if they occured in-between our weather recording intervals... More about our weather records

Advertising

Antioch weather history for previous 24 hours

 ConditionsComfort  
Time TempWeatherWind HumidityBarometerVisibility
3:53 AM
Sep 30
60 °FClear.9 mph86%29.90 "Hg10 mi
2:53 AM61 °FClear.12 mph83%29.91 "Hg10 mi
1:53 AM61 °FClear.15 mph83%29.90 "Hg10 mi
12:53 AM61 °FClear.14 mph83%29.91 "Hg10 mi
11:53 PM
Sep 29
61 °FClear.14 mph83%29.92 "Hg10 mi
10:53 PM62 °FClear.14 mph80%29.93 "Hg10 mi
9:53 PM62 °FClear.12 mph80%29.92 "Hg10 mi
8:53 PM64 °FClear.12 mph75%29.91 "Hg10 mi
7:53 PM66 °FSunny.7 mph68%29.90 "Hg10 mi
6:53 PM69 °FSunny.7 mph59%29.90 "Hg10 mi
5:53 PM72 °FSunny.9 mph55%29.90 "Hg10 mi
4:53 PM76 °FSunny.10 mph48%29.90 "Hg10 mi
3:53 PM79 °FSunny.13 mph41%29.90 "Hg10 mi
2:53 PM80 °FSunny.5 mph41%29.91 "Hg10 mi
1:53 PM78 °FSunny.5 mph45%29.93 "Hg10 mi
12:53 PM73 °FSunny.No wind55%29.96 "Hg10 mi
11:53 AM71 °FSunny.9 mph61%29.97 "Hg10 mi
10:53 AM68 °FSunny.5 mph65%29.98 "Hg10 mi
9:53 AM63 °FScattered clouds.7 mph81%29.98 "Hg9 mi
9:00 AM60 °FOvercast.7 mph86%30.02 "Hg10 mi
7:53 AM58 °FLow clouds.6 mph93%29.96 "Hg7 mi
6:53 AM57 °FLow clouds.7 mph96%29.94 "Hg8 mi
5:53 AM56 °FPassing clouds.5 mph93%29.94 "Hg10 mi
Weather by CustomWeather, © 2014

See weather overviewHow to use our weather pages